This is the latest recevied weather packets stored in our database for station/object KQ4OSL. If no packets are shown the sender has not sent any weather packets the latest 10 day(s).
| Time | Temp. | Humidity | Pressure | Rain* | Wind** | Luminosity | Snow |
|---|---|---|---|---|---|---|---|
| 1777930432 | 23.89° C | 40% | 1015.8 hPa | 0 mm | - | 82 W/m² | - |
| 1777930130 | 24.44° C | 40% | 1016.1 hPa | 0 mm | - | 258 W/m² | - |
| 1777929826 | 23.89° C | 39% | 1016 hPa | 0 mm | - | 348 W/m² | - |
| 1777929524 | 23.89° C | 39% | 1015.9 hPa | 0 mm | - | 249 W/m² | - |
| 1777929219 | 24.44° C | 37% | 1015.9 hPa | 0 mm | - | 207 W/m² | - |
| 1777928917 | 24.44° C | 40% | 1015.9 hPa | 0 mm | - | 295 W/m² | - |
| 1777928614 | 23.89° C | 42% | 1016 hPa | 0 mm | - | 393 W/m² | - |
| 1777928311 | 23.89° C | 40% | 1016 hPa | 0 mm | - | 197 W/m² | - |
| 1777928009 | 24.44° C | 42% | 1016.1 hPa | 0 mm | - | 286 W/m² | - |
| 1777927707 | 24.44° C | 39% | 1016 hPa | 0 mm | - | 334 W/m² | - |
| 1777927405 | 24.44° C | 41% | 1016.1 hPa | 0 mm | - | 344 W/m² | - |
| 1777927104 | 24.44° C | 45% | 1016.2 hPa | 0 mm | - | 577 W/m² | - |
| 1777926801 | 23.89° C | 42% | 1016.1 hPa | 0 mm | - | 267 W/m² | - |
| 1777926496 | 24.44° C | 40% | 1016.4 hPa | 0 mm | - | 116 W/m² | - |
| 1777926194 | 25.56° C | 41% | 1016.4 hPa | 0 mm | - | 392 W/m² | - |
| 1777925890 | 25° C | 42% | 1016.3 hPa | 0 mm | - | 543 W/m² | - |
| 1777925588 | 25° C | 42% | 1016.3 hPa | 0 mm | - | 627 W/m² | - |
| 1777925285 | 23.89° C | 45% | 1016.4 hPa | 0 mm | - | 430 W/m² | - |
| 1777924981 | 23.89° C | 45% | 1016.4 hPa | 0 mm | - | 200 W/m² | - |
| 1777924677 | 24.44° C | 45% | 1016.4 hPa | 0 mm | - | 262 W/m² | - |
| 1777924373 | 23.89° C | 44% | 1016.6 hPa | 0 mm | - | 428 W/m² | - |
| 1777924070 | 25° C | 42% | 1016.9 hPa | 0 mm | - | 452 W/m² | - |
| 1777923767 | 25° C | 43% | 1016.9 hPa | 0 mm | - | 639 W/m² | - |
| 1777923463 | 25° C | 43% | 1016.9 hPa | 0 mm | - | 614 W/m² | - |
| 1777923161 | 25° C | 40% | 1016.8 hPa | 0 mm | - | 667 W/m² | - |
* Rain latest hour (hover to see other rain measurements)
** Current wind speed in m/s (hover to see current wind gust speed)